Watertown, WI

3:04 PM CDT on May 23, 2017 (GMT -0500)
Watertown Municipal

Weather History for KRYV - January, 2012

Change the Weather History Date:

Tuesday, January 17, 2012

  Actual Average Record
Temperature  
Mean Temperature 24 °F -  
Max Temperature 33 °F 27 °F 49 °F (1973)
Min Temperature 14 °F 8 °F -27 °F (1982)
Degree Days  
Heating Degree Days 42    
Moisture  
Dew Point 20 °F    
Average Humidity 77    
Maximum Humidity 86    
Minimum Humidity 62    
Precipitation  
Precipitation 0.00 in - - ()
Sea Level Pressure  
Sea Level Pressure 29.85 in    
Wind  
Wind Speed 11 mph (NNW)    
Max Wind Speed 21 mph    
Max Gust Speed 28 mph    
Visibility 7 miles    
Events Snow    
Averages and records for this station are not official NWS values.
T = Trace of Precipitation, MM = Missing Value Source: NWS Daily Summary

Daily Weather History Graph

Daily Weather History Graph

Search for Another Location

Airport or City:

Trip Planner

Search our weather history database for the weather conditions in past years. The results will help you decide how hot, cold, wet, or windy it might be!

Date:

Astronomy

Jan. 17, 2012 Rise Set
Actual Time 7:23 AM CST 4:47 PM CST
Civil Twilight 6:51 AM CST 5:18 PM CST
Nautical Twilight 6:16 AM CST 5:53 PM CST
Astronomical Twilight 5:42 AM CST 6:27 PM CST
Moon 1:41 AM CST (1/17) 11:40 AM CST (1/17)
Length of Visible Light 10h 26m
Length of Day
9h 24m
Waning Crescent, 35% of the Moon is Illuminated
Jan 17
Waning Crescent
Jan 23
New
Jan 30
First Quarter
Feb 7
Full
Feb 14
Last Quarter

Hourly Weather History & Observations

Time (CST) Temp. Windchill Dew Point Humidity Pressure Visibility Wind Dir Wind Speed Gust Speed Precip Events Conditions
12:15 AM 33.8 °F 27.7 °F 28.4 °F 81% 29.73 in 10.0 mi NNE 6.9 mph - N/A   Overcast
12:55 AM 33.8 °F 27.0 °F 28.4 °F 81% 29.72 in 10.0 mi NNE 8.1 mph - N/A   Mostly Cloudy
1:15 AM 33.8 °F 27.0 °F 26.6 °F 75% 29.71 in 10.0 mi NNE 8.1 mph - N/A   Mostly Cloudy
1:35 AM 33.8 °F 26.4 °F 26.6 °F 75% 29.71 in 10.0 mi NNE 9.2 mph - N/A   Overcast
1:55 AM 33.8 °F 26.4 °F 28.4 °F 81% 29.71 in 7.0 mi NNE 9.2 mph - N/A   Overcast
2:15 AM 33.8 °F 26.4 °F 28.4 °F 81% 29.72 in 7.0 mi NNE 9.2 mph 17.3 mph N/A   Overcast
2:35 AM 33.8 °F 26.4 °F 28.4 °F 81% 29.71 in 10.0 mi North 9.2 mph - N/A   Overcast
2:55 AM 33.8 °F 27.0 °F 28.4 °F 81% 29.69 in 10.0 mi NNE 8.1 mph - N/A   Overcast
3:35 AM 33.8 °F 27.0 °F 28.4 °F 81% 29.69 in 10.0 mi North 8.1 mph - N/A   Overcast
4:15 AM 33.8 °F 26.4 °F 26.6 °F 75% 29.67 in 10.0 mi North 9.2 mph 16.1 mph N/A   Overcast
4:35 AM 33.8 °F 24.8 °F 26.6 °F 75% 29.66 in 10.0 mi North 12.7 mph 17.3 mph N/A   Overcast
4:55 AM 33.8 °F 25.8 °F 26.6 °F 75% 29.68 in 10.0 mi North 10.4 mph 16.1 mph N/A   Overcast
5:15 AM 32.0 °F 23.0 °F 26.6 °F 80% 29.68 in 10.0 mi North 11.5 mph 17.3 mph N/A   Overcast
5:35 AM 32.0 °F 23.0 °F 26.6 °F 80% 29.69 in 10.0 mi North 11.5 mph 18.4 mph N/A   Overcast
5:55 AM 30.2 °F 20.2 °F 26.6 °F 86% 29.68 in 5.0 mi North 12.7 mph 19.6 mph N/A   Haze
6:15 AM 30.2 °F 20.2 °F 26.6 °F 86% 29.68 in 4.0 mi North 12.7 mph 19.6 mph N/A   Overcast
6:35 AM 30.2 °F 19.8 °F 26.6 °F 86% 29.67 in 3.0 mi North 13.8 mph 23.0 mph N/A   Overcast
6:55 AM 30.2 °F 20.8 °F 26.6 °F 86% 29.69 in 5.0 mi North 11.5 mph 16.1 mph N/A   Overcast
7:15 AM 28.4 °F 17.0 °F 24.8 °F 86% 29.68 in 2.0 mi North 15.0 mph 20.7 mph N/A   Overcast
7:35 AM 28.4 °F 15.8 °F 24.8 °F 86% 29.70 in 1.0 mi North 18.4 mph 21.9 mph N/A Snow Light Snow
8:15 AM 26.6 °F 14.3 °F 23.0 °F 86% 29.75 in 1.0 mi North 16.1 mph 25.3 mph N/A Snow Light Snow
8:35 AM 26.6 °F 13.8 °F 23.0 °F 86% 29.76 in 0.8 mi North 17.3 mph 26.5 mph N/A Snow Light Snow
8:55 AM 26.6 °F 14.3 °F 21.2 °F 80% 29.77 in 0.5 mi NNW 16.1 mph 24.2 mph N/A Snow Light Snow
9:15 AM 26.6 °F 15.2 °F 21.2 °F 80% 29.78 in 0.5 mi NNW 13.8 mph - N/A Snow Snow
9:35 AM 26.6 °F 14.3 °F 21.2 °F 80% 29.79 in 0.8 mi NNW 16.1 mph 23.0 mph N/A Snow Light Snow
10:15 AM 26.6 °F 14.3 °F 21.2 °F 80% 29.80 in 7.0 mi North 16.1 mph 23.0 mph N/A Snow Light Snow
10:35 AM 26.6 °F 14.3 °F 21.2 °F 80% 29.81 in 5.0 mi NNW 16.1 mph 26.5 mph N/A Snow Light Snow
10:55 AM 26.6 °F 15.7 °F 21.2 °F 80% 29.81 in 7.0 mi North 12.7 mph 20.7 mph N/A   Scattered Clouds
11:15 AM 26.6 °F 15.2 °F 21.2 °F 80% 29.81 in 7.0 mi NNW 13.8 mph 20.7 mph N/A Snow Light Snow
11:35 AM 26.6 °F 15.2 °F 21.2 °F 80% 29.82 in 3.0 mi NNW 13.8 mph 20.7 mph N/A Snow Light Snow
12:15 PM 26.6 °F 15.2 °F 21.2 °F 80% 29.84 in 2.5 mi NNW 13.8 mph 23.0 mph N/A   Overcast
12:35 PM 26.6 °F 15.2 °F 19.4 °F 74% 29.85 in 5.0 mi NNW 13.8 mph 26.5 mph N/A   Haze
12:55 PM 26.6 °F 12.7 °F 19.4 °F 74% 29.86 in 5.0 mi NW 20.7 mph 27.6 mph N/A   Haze
1:35 PM 26.6 °F 15.7 °F 19.4 °F 74% 29.87 in 7.0 mi NNW 12.7 mph 21.9 mph N/A   Mostly Cloudy
1:55 PM 24.8 °F 14.0 °F 19.4 °F 80% 29.88 in 5.0 mi NW 11.5 mph 20.7 mph N/A   Haze
2:15 PM 24.8 °F 11.1 °F 17.6 °F 74% 29.90 in 7.0 mi NW 18.4 mph 25.3 mph N/A   Mostly Cloudy
2:35 PM 24.8 °F 11.5 °F 17.6 °F 74% 29.91 in 10.0 mi NW 17.3 mph 25.3 mph N/A   Mostly Cloudy
2:55 PM 24.8 °F 11.9 °F 17.6 °F 74% 29.93 in 10.0 mi NW 16.1 mph 21.9 mph N/A   Overcast
3:15 PM 24.8 °F 12.4 °F 17.6 °F 74% 29.94 in 10.0 mi NW 15.0 mph 18.4 mph N/A   Overcast
3:55 PM 24.8 °F 12.9 °F 17.6 °F 74% 29.99 in 10.0 mi WNW 13.8 mph 24.2 mph N/A   Overcast
4:15 PM 24.8 °F 11.5 °F 15.8 °F 69% 30.00 in 10.0 mi NW 17.3 mph 21.9 mph N/A   Overcast
4:35 PM 24.8 °F 13.4 °F 15.8 °F 69% 30.02 in 10.0 mi WNW 12.7 mph 21.9 mph N/A   Overcast
4:55 PM 23.0 °F 10.1 °F 15.8 °F 74% 30.04 in 10.0 mi WNW 15.0 mph 20.7 mph N/A   Overcast
5:15 PM 21.2 °F 6.4 °F 12.2 °F 68% 30.05 in 10.0 mi NW 18.4 mph 25.3 mph N/A   Mostly Cloudy
5:35 PM 21.2 °F 10.1 °F 12.2 °F 68% 30.06 in 10.0 mi NW 10.4 mph - N/A   Scattered Clouds
5:55 PM 19.4 °F 8.6 °F 12.2 °F 74% 30.07 in 10.0 mi WNW 9.2 mph 16.1 mph N/A   Scattered Clouds
6:15 PM 19.4 °F 5.5 °F 10.4 °F 68% 30.08 in 10.0 mi NW 15.0 mph 19.6 mph N/A   Clear
6:55 PM 17.6 °F 5.0 °F 10.4 °F 73% 30.12 in 10.0 mi WNW 11.5 mph 16.1 mph N/A   Clear
7:15 PM 17.6 °F 5.0 °F 8.6 °F 68% 30.13 in 10.0 mi WNW 11.5 mph 18.4 mph N/A   Clear
7:35 PM 17.6 °F 5.0 °F 6.8 °F 63% 30.14 in 10.0 mi NW 11.5 mph 19.6 mph N/A   Clear
8:15 PM 15.8 °F 2.7 °F 6.8 °F 68% 30.16 in 10.0 mi WNW 11.5 mph 18.4 mph N/A   Clear
8:35 PM 15.8 °F 2.1 °F 6.8 °F 68% 30.17 in 10.0 mi WNW 12.7 mph - N/A   Clear
8:55 PM 14.0 °F -0.8 °F 5.0 °F 67% 30.18 in 10.0 mi NW 13.8 mph 18.4 mph N/A   Clear
9:15 PM 14.0 °F 0.5 °F 3.2 °F 62% 30.19 in 10.0 mi NW 11.5 mph - N/A   Clear
9:35 PM 12.2 °F -1.8 °F 3.2 °F 67% 30.20 in 10.0 mi WNW 11.5 mph - N/A   Clear
9:55 PM 12.2 °F 0.7 °F 3.2 °F 67% 30.20 in 10.0 mi WNW 8.1 mph - N/A   Clear
10:15 PM 12.2 °F 1.7 °F 3.2 °F 67% 30.21 in 10.0 mi WNW 6.9 mph - N/A   Clear
10:35 PM 12.2 °F 2.9 °F 1.4 °F 62% 30.21 in 10.0 mi WNW 5.8 mph - N/A   Clear
10:55 PM 10.4 °F 0.8 °F 1.4 °F 67% 30.20 in 10.0 mi WNW 5.8 mph - N/A   Clear
11:15 PM 10.4 °F 2.2 °F 1.4 °F 67% 30.22 in 10.0 mi West 4.6 mph - N/A   Clear
11:35 PM 10.4 °F 0.8 °F 1.4 °F 67% 30.22 in 10.0 mi West 5.8 mph - N/A   Clear